Sitka, AK

8:24 PM AKDT on April 25, 2018 (GMT -0800)
Sitka Rocky Gutierrez

Weather History for PASI - April, 2013

Change the Weather History Date:

Monday, April 29, 2013

  Actual Average Record
Temperature  
Mean Temperature 37 °F -  
Max Temperature 42 °F 52 °F 76 °F (1976)
Min Temperature 32 °F 38 °F 28 °F (1964)
Degree Days  
Heating Degree Days 28    
Moisture  
Dew Point 22 °F    
Average Humidity 54    
Maximum Humidity 73    
Minimum Humidity 41    
Precipitation  
Precipitation 0.00 in - - ()
Sea Level Pressure  
Sea Level Pressure 30.14 in    
Wind  
Wind Speed 13 mph (NNW)    
Max Wind Speed 18 mph    
Max Gust Speed 24 mph    
Visibility 10 miles    
Events      
Averages and records for this station are not official NWS values.
T = Trace of Precipitation, MM = Missing Value Source: NWS Daily Summary

Daily Weather History Graph

Daily Weather History Graph

Search for Another Location

Airport or City:

Astronomy

Apr. 29, 2013 Rise Set
Actual Time 5:16 AM AKDT 8:42 PM AKDT
Civil Twilight 4:31 AM AKDT 9:28 PM AKDT
Nautical Twilight 3:27 AM AKDT 10:32 PM AKDT
Astronomical Twilight 1:34 AM AKDT 12:42 AM AKDT
Moon 12:39 AM AKDT (4/29) 8:25 AM AKDT (4/29)
Length of Visible Light 16h 57m
Length of Day
15h 25m
Waning Gibbous, 79% of the Moon is Illuminated
Apr 29
Waning Gibbous
May 2
Last Quarter
May 9
New
May 17
First Quarter
May 24
Full

Hourly Weather History & Observations

Time (AKDT) Temp. Windchill Dew Point Humidity Pressure Visibility Wind Dir Wind Speed Gust Speed Precip Events Conditions
12:53 AM 35.1 °F 26.9 °F 27.0 °F 72% 29.90 in 10.0 mi NNW 11.5 mph - N/A   Clear
1:53 AM 34.0 °F 26.0 °F 25.0 °F 70% 29.94 in 10.0 mi North 10.4 mph - N/A   Clear
2:53 AM 34.0 °F 23.8 °F 24.1 °F 67% 29.96 in 10.0 mi NNW 16.1 mph - N/A   Clear
3:53 AM 33.1 °F 24.4 °F 23.0 °F 66% 29.99 in 10.0 mi NNW 11.5 mph - N/A   Clear
4:53 AM 33.1 °F 24.4 °F 21.0 °F 61% 30.01 in 10.0 mi North 11.5 mph - N/A   Clear
5:53 AM 32.0 °F 22.1 °F 21.9 °F 66% 30.03 in 10.0 mi NNW 13.8 mph - N/A   Clear
6:53 AM 33.1 °F 23.9 °F 19.0 °F 56% 30.05 in 10.0 mi NNW 12.7 mph - N/A   Clear
7:53 AM 33.1 °F 23.4 °F 19.0 °F 56% 30.08 in 10.0 mi NNW 13.8 mph - N/A   Clear
8:53 AM 35.1 °F 25.9 °F 18.0 °F 50% 30.10 in 10.0 mi NNW 13.8 mph - N/A   Clear
9:53 AM 36.0 °F 26.7 °F 19.0 °F 50% 30.12 in 10.0 mi NNW 15.0 mph - N/A   Clear
10:53 AM 37.9 °F 29.2 °F 19.9 °F 48% 30.13 in 10.0 mi NNW 15.0 mph 24.2 mph N/A   Clear
11:53 AM 39.0 °F 31.4 °F 19.0 °F 45% 30.16 in 10.0 mi NNW 12.7 mph - N/A   Clear
12:53 PM 39.9 °F 30.8 °F 21.0 °F 47% 30.18 in 10.0 mi NNW 18.4 mph - N/A   Clear
1:53 PM 39.9 °F 30.8 °F 21.0 °F 47% 30.19 in 10.0 mi NNW 18.4 mph - N/A   Partly Cloudy
2:53 PM 41.0 °F 32.5 °F 19.9 °F 43% 30.21 in 10.0 mi NW 17.3 mph - N/A   Partly Cloudy
3:53 PM 41.0 °F 32.8 °F 19.9 °F 43% 30.22 in 10.0 mi NW 16.1 mph - N/A   Partly Cloudy
4:53 PM 42.1 °F 34.2 °F 21.9 °F 45% 30.22 in 10.0 mi NW 16.1 mph - N/A   Clear
5:53 PM 42.1 °F 35.2 °F 19.9 °F 41% 30.23 in 10.0 mi NW 12.7 mph - N/A   Clear
6:53 PM 42.1 °F 35.7 °F 21.0 °F 43% 30.24 in 10.0 mi NW 11.5 mph - N/A   Clear
7:53 PM 41.0 °F 35.8 °F 21.0 °F 45% 30.25 in 10.0 mi NNW 8.1 mph - N/A   Clear
8:53 PM 39.9 °F 31.4 °F 25.0 °F 55% 30.27 in 10.0 mi NW 16.1 mph - N/A   Clear
9:53 PM 37.9 °F 34.4 °F 23.0 °F 55% 30.28 in 10.0 mi North 4.6 mph - N/A   Partly Cloudy
10:53 PM 37.0 °F - 21.0 °F 52% 30.28 in 9.0 mi Calm Calm - N/A   Clear
11:53 PM 34.0 °F 28.8 °F 26.1 °F 73% 30.28 in 10.0 mi East 5.8 mph - N/A   Clear